TimeEST,TemperatureF,Dew PointF,Humidity,Sea Level PressureIn,VisibilityMPH,Wind Direction,Wind SpeedMPH,Gust SpeedMPH,PrecipitationIn,Events,Conditions,WindDirDegrees,DateUTC
12:31 AM,34.0,33.1,96,29.25,1.5,SE,15.0,25.3,N/A,,Overcast,130,2014-02-21 05:31:00
12:50 AM,35.6,33.8,93,29.23,0.8,SE,17.3,26.5,N/A,,Overcast,130,2014-02-21 05:50:00
12:53 AM,35.1,34.0,96,29.26,0.8,SE,18.4,26.5,N/A,,Mist,130,2014-02-21 05:53:00
1:12 AM,35.1,34.0,96,29.23,1.0,SSE,11.5,27.6,N/A,,Mist,150,2014-02-21 06:12:00
1:43 AM,36.0,36.0,100,29.22,1.8,South,17.3,28.8,0.00,,Overcast,170,2014-02-21 06:43:00
1:47 AM,35.6,35.6,100,29.22,3.0,South,13.8,28.8,0.00,,Overcast,180,2014-02-21 06:47:00
1:53 AM,36.0,36.0,100,29.24,4.0,South,16.1,26.5,0.00,,Overcast,190,2014-02-21 06:53:00
2:30 AM,35.1,33.1,92,29.22,10.0,SW,24.2,28.8,N/A,,Overcast,220,2014-02-21 07:30:00
2:40 AM,35.1,30.9,85,29.22,10.0,SSW,20.7,35.7,N/A,,Overcast,210,2014-02-21 07:40:00
2:53 AM,35.1,30.0,82,29.25,10.0,SW,18.4,29.9,N/A,,Overcast,220,2014-02-21 07:53:00
3:53 AM,35.1,28.9,78,29.25,10.0,SSW,23.0,36.8,N/A,,Overcast,210,2014-02-21 08:53:00
4:53 AM,35.1,28.0,76,29.25,10.0,SSW,26.5,40.3,N/A,,Overcast,210,2014-02-21 09:53:00
5:53 AM,34.0,28.0,79,29.25,10.0,SW,24.2,34.5,N/A,,Overcast,220,2014-02-21 10:53:00
6:53 AM,34.0,27.0,75,29.24,10.0,SW,19.6,33.4,N/A,,Overcast,220,2014-02-21 11:53:00
7:53 AM,34.0,26.1,73,29.25,10.0,SSW,23.0,41.4,N/A,,Overcast,210,2014-02-21 12:53:00
1:12 PM,26.1,19.9,78,29.28,1.2,SW,25.3,33.4,0.00,,Unknown,230,2014-02-21 18:12:00
1:29 PM,26.1,21.0,81,29.28,0.8,WSW,23.0,33.4,0.00,Snow,Light Snow,240,2014-02-21 18:29:00
1:53 PM,25.0,21.0,85,29.33,0.5,WSW,19.6,27.6,0.00,Fog-Snow,Snow,240,2014-02-21 18:53:00
2:01 PM,25.0,21.0,85,29.29,0.5,SW,16.1,27.6,0.00,Fog-Snow,Snow,230,2014-02-21 19:01:00
2:32 PM,24.1,19.0,81,29.30,0.5,WSW,23.0,34.5,0.00,Snow,Snow,240,2014-02-21 19:32:00
2:43 PM,24.1,19.0,81,29.31,1.2,WSW,20.7,31.1,0.00,,Haze,240,2014-02-21 19:43:00
2:48 PM,24.8,19.4,80,29.31,0.8,WSW,21.9,32.2,0.00,Snow,Light Snow,240,2014-02-21 19:48:00
2:53 PM,24.1,19.0,81,29.35,0.8,SW,19.6,32.2,0.00,Snow,Light Snow,230,2014-02-21 19:53:00
3:53 PM,23.0,19.9,88,29.38,0.8,SW,20.7,28.8,0.00,Snow,Light Snow,230,2014-02-21 20:53:00
4:37 PM,24.1,19.0,81,29.36,1.0,SW,21.9,28.8,0.00,,Overcast,230,2014-02-21 21:37:00
4:53 PM,24.1,19.0,81,29.41,0.8,WSW,21.9,29.9,0.00,Snow,Light Snow,240,2014-02-21 21:53:00
5:11 PM,24.1,19.9,84,29.37,1.2,SW,18.4,29.9,0.00,,Overcast,230,2014-02-21 22:11:00
5:16 PM,24.1,19.9,84,29.38,0.8,SW,20.7,31.1,0.00,Snow,Light Snow,230,2014-02-21 22:16:00
5:32 PM,24.1,19.0,81,29.38,1.2,WSW,20.7,32.2,0.00,,Overcast,240,2014-02-21 22:32:00
5:49 PM,24.8,19.4,80,29.39,0.8,SW,20.7,29.9,0.00,Snow,Light Snow,230,2014-02-21 22:49:00
5:53 PM,24.1,19.9,84,29.43,0.8,SW,16.1,29.9,0.00,Snow,Light Snow,230,2014-02-21 22:53:00
6:04 PM,24.1,19.9,84,29.39,1.0,SW,18.4,25.3,0.00,Snow,Light Snow,230,2014-02-21 23:04:00
6:16 PM,24.1,19.9,84,29.40,1.5,SW,15.0,26.5,0.00,,Overcast,230,2014-02-21 23:16:00
6:31 PM,24.1,19.9,84,29.41,2.0,SW,19.6,29.9,0.00,,Overcast,230,2014-02-21 23:31:00
6:42 PM,24.1,19.9,84,29.42,3.0,SW,17.3,28.8,0.00,,Overcast,230,2014-02-21 23:42:00
6:53 PM,25.0,19.9,81,29.46,6.0,SW,19.6,34.5,0.00,,Haze,230,2014-02-21 23:53:00
7:53 PM,25.0,18.0,75,29.49,9.0,WSW,18.4,29.9,N/A,,Overcast,250,2014-02-22 00:53:00
8:20 PM,25.0,17.1,72,29.46,10.0,WSW,19.6,32.2,N/A,,Overcast,240,2014-02-22 01:20:00
8:53 PM,25.0,17.1,72,29.51,10.0,WSW,19.6,27.6,N/A,,Overcast,250,2014-02-22 01:53:00
9:53 PM,25.0,16.0,69,29.53,10.0,WSW,21.9,32.2,N/A,,Overcast,250,2014-02-22 02:53:00
10:53 PM,24.1,16.0,71,29.56,10.0,West,19.6,34.5,0.00,,Overcast,260,2014-02-22 03:53:00
11:53 PM,23.0,15.1,72,29.58,9.0,West,19.6,35.7,0.00,,Overcast,260,2014-02-22 04:53:00